EW6790 Weather Reports


time (UTC)temp
C
wind
direction
speed
KPH
gust
KPH
rain 1hr
cm
rain 24hr
cm
rain mn
cm
humidity
%
barometer
mb
20260901030040 22 322 0.0 0.0 0.00 0.00 0.00 86 1011.1
20260901024525 23 322 0.0 0.0 0.00 0.00 0.00 84 1011.0
20260901023018 23 322 0.0 0.0 0.00 0.00 0.00 83 1010.9
20260901021600 23 322 3.2 4.8 0.00 0.00 0.00 84 1011.0
20260901021503 23 321 3.2 4.8 0.00 0.00 0.00 84 1010.9
20260901020100 23 321 0.0 0.0 0.00 0.00 0.00 82 1010.8
20260901014537 25 323 4.8 8.0 0.00 0.00 0.00 79 1010.6
20260901013035 24 331 0.0 1.6 0.00 0.00 0.00 83 1010.6
20260901011513 25 331 0.0 1.6 0.00 0.00 0.00 79 1010.3
20260901010022 25 331 0.0 1.6 0.00 0.00 0.00 76 1010.1
20260901004551 26 331 1.6 6.4 0.00 0.00 0.00 71 1010.1
20260901003049 27 328 0.0 4.8 0.00 0.00 0.00 69 1010.1
20260901001529 28 326 0.0 3.2 0.00 0.00 0.00 69 1010.0
20260901000029 29 328 0.0 4.8 0.00 0.00 0.00 67 1010.0
20260831234511 30 328 1.6 4.8 0.00 0.00 0.00 66 1010.2
20260831233009 31 317 0.0 4.8 0.00 0.00 0.00 63 1010.1
20260831231556 31 295 0.0 1.6 0.00 0.00 0.00 61 1010.1
20260831230114 31 330 0.0 4.8 0.00 0.00 0.00 59 1010.0
20260831224531 31 323 1.6 3.2 0.00 0.00 0.00 59 1009.9
20260831223029 31 286 0.0 1.6 0.00 0.00 0.00 64 1009.9
20260831221523 31 288 3.2 4.8 0.00 0.00 0.00 57 1009.8
20260831220011 31 291 0.0 8.0 0.00 0.00 0.00 62 1009.8
20260831214551 31 266 1.6 6.4 0.00 0.00 0.00 58 1009.8
20260831213054 31 319 0.0 6.4 0.00 0.00 0.00 60 1009.8
20260831211529 30 319 1.6 8.0 0.00 0.00 0.00 63 1009.7
20260831210026 30 322 1.6 6.4 0.00 0.00 0.00 64 1009.7
20260831204507 29 259 1.6 6.4 0.00 0.00 0.00 74 1009.7
20260831203003 29 294 1.6 6.4 0.00 0.00 0.00 75 1009.6
20260831201545 28 304 0.0 6.4 0.00 0.00 0.00 75 1009.6
20260831200040 28 323 4.8 12.9 0.00 0.00 0.00 77 1009.4
20260831194537 27 322 3.2 14.5 0.00 0.00 0.00 81 1009.6
20260831193016 27 321 4.8 11.3 0.00 0.00 0.00 86 1009.3
20260831191556 26 268 3.2 11.3 0.00 0.00 0.00 87 1009.2
20260831190106 26 335 1.6 14.5 0.00 0.00 0.00 87 1009.0
20260831184544 26 322 4.8 11.3 0.00 0.00 0.00 86 1008.9
20260831183034 26 328 8.0 14.5 0.00 0.00 0.00 86 1009.0
20260831181521 27 319 1.6 14.5 0.00 0.00 0.00 86 1009.0
20260831180011 26 318 3.2 14.5 0.00 0.00 0.00 87 1009.1
20260831174557 26 324 6.4 12.9 0.00 0.00 0.00 87 1009.3
20260831173047 26 319 4.8 9.7 0.00 0.00 0.00 87 1009.5
20260831171542 26 326 1.6 8.0 0.00 0.00 0.00 87 1009.6
20260831170105 26 290 0.0 3.2 0.00 0.00 0.00 87 1009.7
20260831164534 25 293 0.0 8.0 0.00 0.00 0.00 87 1009.5
20260831163033 25 304 0.0 6.4 0.00 0.00 0.00 87 1009.4
20260831161528 25 344 3.2 6.4 0.00 0.00 0.00 87 1009.1
20260831160032 25 289 1.6 8.0 0.00 0.00 0.00 87 1009.3
20260831154527 25 271 0.0 4.8 0.00 0.00 0.00 87 1009.2
20260831153025 24 304 0.0 6.4 0.00 0.00 0.00 87 1009.0
20260831151509 25 278 1.6 6.4 0.00 0.00 0.00 87 1008.9
20260831150005 24 278 0.0 9.7 0.00 0.00 0.00 87 1008.7
20260831144546 25 268 0.0 6.4 0.00 0.00 0.00 87 1008.7
20260831143046 24 272 0.0 11.3 0.00 0.00 0.00 87 1008.5
20260831141526 23 284 4.8 11.3 0.00 0.00 0.00 85 1008.4
20260831140027 23 288 4.8 8.0 0.00 0.00 0.00 81 1008.2
20260831134506 22 238 6.4 11.3 0.00 0.00 0.00 76 1008.1
20260831133004 22 245 9.7 14.5 0.00 0.00 0.00 72 1008.1
20260831131546 22 260 6.4 11.3 0.00 0.00 0.00 70 1007.8
20260831130045 22 233 4.8 9.7 0.00 0.00 0.00 71 1007.8
20260831124524 22 217 8.0 12.9 0.00 0.00 0.00 71 1007.4
20260831123022 22 250 4.8 19.3 0.00 0.00 0.00 68 1007.3
20260831121507 21 224 8.0 12.9 0.00 0.00 0.00 59 1006.8
20260831120100 -17 0.0 0.0 0.00 0.00 0.00 1006.9
20260831114556 -17 0.0 0.0 0.00 0.00 0.00 1006.5
20260831113033 -17 0.0 0.0 0.00 0.00 0.00 1006.5
20260831111532 -17 0.0 0.0 0.00 0.00 0.00 1006.2
20260831110013 -17 0.0 0.0 0.00 0.00 0.00 1006.2
20260831104509 -17 0.0 0.0 0.00 0.00 0.00 1006.3
20260831103004 -17 0.0 0.0 0.00 0.00 0.00 1006.2
20260831101603 -17 0.0 0.0 0.00 0.00 0.00 1006.2
20260831100058 21 165 8.0 12.9 0.00 0.00 0.00 52 1006.1
20260831094557 21 181 8.0 11.3 0.00 0.00 0.00 53 1006.2
20260831093056 21 186 8.0 11.3 0.00 0.00 0.00 56 1006.2
20260831091607 21 198 6.4 11.3 0.00 0.00 0.00 55 1006.1
20260831090038 21 180 9.7 12.9 0.00 0.00 0.00 57 1006.2
20260831084536 21 187 8.0 12.9 0.00 0.00 0.00 57 1006.2
20260831083023 21 195 11.3 14.5 0.00 0.00 0.00 60 1005.9
20260831081516 21 189 8.0 12.9 0.00 0.00 0.00 63 1005.8
20260831080106 22 186 11.3 19.3 0.00 0.00 0.00 64 1005.8
20260831074557 22 174 11.3 19.3 0.00 0.00 0.00 62 1005.7
20260831073039 22 185 9.7 16.1 0.00 0.00 0.00 62 1005.9
20260831071537 22 181 9.7 19.3 0.00 0.00 0.00 60 1005.9
20260831070020 22 169 9.7 16.1 0.00 0.00 0.00 58 1006.1
20260831064518 21 183 9.7 14.5 0.00 0.00 0.00 58 1006.2
20260831063100 21 169 6.4 14.5 0.00 0.00 0.00 58 1006.2
20260831061559 21 132 8.0 12.9 0.00 0.00 0.00 54 1006.5
20260831060042 21 172 9.7 12.9 0.00 0.00 0.00 57 1006.5
20260831054539 21 140 6.4 11.3 0.00 0.00 0.00 57 1006.5
20260831053025 21 162 4.8 9.7 0.00 0.00 0.00 60 1006.6
20260831051520 21 125 3.2 9.7 0.00 0.00 0.00 62 1006.8
20260831050100 21 140 3.2 9.7 0.00 0.00 0.00 65 1006.8
20260831044558 21 150 3.2 8.0 0.00 0.00 0.00 69 1006.7
20260831043037 22 160 3.2 8.0 0.00 0.00 0.00 72 1006.7
20260831041548 22 197 4.8 11.3 0.00 0.00 0.00 76 1006.5
20260831040020 22 185 9.7 17.7 0.00 0.00 0.00 78 1006.4
20260831034516 22 174 9.7 19.3 0.00 0.00 0.00 79 1006.2
20260831033059 22 147 9.7 22.5 0.00 0.00 0.00 81 1006.4
20260831031609 22 166 11.3 22.5 0.00 0.00 0.00 78 1006.5